Location: Ambatotampy
(18.8181°S, 47.6186°E)
Time: 23:51:07
(UTC+00:00)

NOSS 3-2 (A) - Pass Details

Date: 21 January 2021
Orbit: 783 x 1425 km, 63.4° (Epoch: 24 February)

Event Time Altitude Azimuth Distance (km) Brightness Sun altitude
Rises 01:55:43 0° 225° (SW) 3,442 6.2 -8.0°
Reaches altitude 10° 01:58:46 10° 240° (WSW) 2,431 5.3 -7.4°
Maximum altitude 02:02:56 22° 289° (WNW) 1,671 4.2 -6.5°
Drops below altitude 10° 02:06:57 10° 340° (NNW) 2,328 5.1 -5.6°
Sets 02:09:49 0° 355° (N) 3,258 6.0 -5.0°
